Location: ????????
(41.2031°N, 22.5756°E)
Time: 14:57:39
(UTC+00:00)

H-2A R/B - Pass Details

Date: 01 December 2020
Orbit: 529 x 651 km, 98.3° (Epoch: 20 January)

Event Time Altitude Azimuth Distance (km) Brightness Sun altitude
Rises 16:03:42 0° 182° (S) 2,879 6.3 -11.5°
Reaches altitude 10° 16:06:00 10° 189° (S) 1,959 5.5 -11.9°
Maximum altitude 16:10:02 41° 260° (W) 865 3.9 -12.6°
Drops below altitude 10° 16:13:57 10° 332° (NNW) 1,902 5.2 -13.3°
Sets 16:16:10 0° 340° (NNW) 2,784 6.0 -13.7°
